Regional Weather Roundup
Issued by NWS

Home | Current Version | Previous Version | Graphics & Text | Print | Product List | Glossary On
Versions: 1 2 3 4 5 6 7 8 9 10 11 12 13 14 15 16 17 18 19 20 21 22 23 24 25 26 27 28 29 30 31 32 33 34 35 36 37 38 39 40 41 42 43 44 45 46 47 48 49 50
000
ASUS43 KMKX 062311
RWRWI

WISCONSIN REGIONAL WEATHER ROUNDUP
NATIONAL WEATHER SERVICE MILWAUKEE/SULLIVAN WI
600 PM CDT MON JUL 06 2015

NOTE: "FAIR" INDICATES FEW OR NO CLOUDS BELOW 12,000 FEET WITH NO
SIGNIFICANT WEATHER AND/OR OBSTRUCTIONS TO VISIBILITY.

WIZ001-002-006>008-014>016-023>028-070000-
NORTHWEST WISCONSIN

CITY           SKY/WX    TMP DP  RH WIND       PRES   REMARKS
SUPERIOR ARPT  MOSUNNY   68  54  60 NW13      29.94R
ASHLAND        CLOUDY    64  61  90 CALM      29.93R FOG
HAYWARD        CLOUDY    64  59  83 N8        29.94S HAZE
SIREN          PTSUNNY   69  56  62 N10       29.94S HAZE
CUMBERLAND     CLOUDY    63  55  77 N9        29.94S HAZE
RICE LAKE      MOSUNNY   65  56  72 N10G17    29.95R HAZE
CHETEK         PTSUNNY   64  58  80 N9G16     29.93S HAZE
LADYSMITH      CLOUDY    62  58  86 N12       29.94R FOG
EAU CLAIRE     CLOUDY    66  57  72 N14G21    29.91R HAZE
MENOMONIE      CLOUDY    67  58  72 N14G20    29.93R HAZE
NEW RICHMOND   CLOUDY    67  57  70 N9        29.95S HAZE
OSCEOLA        MOSUNNY   69  59  69 N9        29.96F HAZE
$$

WIZ003>005-009-010-017-018-070000-
NORTH CENTRAL WISCONSIN

CITY           SKY/WX    TMP DP  RH WIND       PRES   REMARKS
MANITOWISH WTR CLOUDY    58  58  99 N7        29.90R FOG
ARBOR VITAE    CLOUDY    59  57  92 N13G20    29.89S FOG
WOODRUFF       CLOUDY    59  57  92 N13G20    29.89S FOG
RHINELANDER    LGT RAIN  59  56  89 N12G20    29.88R FOG
EAGLE RIVER    RAIN      57  57 100 N12G21    29.88R
LAND O LAKES   LGT RAIN  58  55  92 N10G18    29.89R
PHILLIPS       CLOUDY    59  56  89 N13       29.90R FOG
TOMAHAWK       DRIZZLE   59  56  91 N8        29.89R
MEDFORD        CLOUDY    60  57  90 N15G21    29.89R
MERRILL        DRIZZLE   60  60 100 N12G22    29.86R
$$

WIZ029-030-035-036-043>047-070000-
CENTRAL WISCONSIN

CITY           SKY/WX    TMP DP  RH WIND       PRES   REMARKS
WAUSAU         LGT RAIN  64  60  87 N13G26    29.82R
MOSINEE        CLOUDY    64  63  94 NW23G29   29.84R
MARSHFIELD     CLOUDY    65  59  81 N16       29.85R
STEVENS POINT  LGT RAIN  69  67  95 W7        29.81S
WAUPACA        DRIZZLE   76  71  82 SW16G22   29.80R
WAUTOMA        CLOUDY    78  70  76 SW14      29.81R HX  80
WISC RAPIDS    LGT RAIN  72  69  90 W9G20     29.82S
CAMP DOUGLAS   NOT AVBL
$$

WIZ011>013-019>022-031-037>040-048>050-070000-
NORTHEAST WISCONSIN

CITY           SKY/WX    TMP DP  RH WIND       PRES   REMARKS
ANTIGO         RAIN      61  60  97 N16G23    29.81R
SHAWANO        RAIN      73  70  91 W9        29.78R
OCONTO         CLOUDY    75  75 100 CALM      29.75F
STURGEON BAY   CLOUDY    66  63  88 S8        29.80F
GREEN BAY      CLOUDY    79  70  74 S15G23    29.77F HX  82
MANITOWOC      CLOUDY    75  68  78 MISG      29.79F
APPLETON       CLOUDY    79  66  65 SW13      29.79F HX  81
CLINTONVILLE   HVY RAIN  72  70  94 W15G21    29.79R
OSHKOSH        PTSUNNY   79  69  71 SW12G22   29.79S HX  81
$$

WIZ032>034-041-042-053>061-070000-
SOUTHWEST WISCONSIN

CITY           SKY/WX    TMP DP  RH WIND       PRES   REMARKS
LA CROSSE      CLOUDY    68  63  84 NW17      29.86R
SPARTA         CLOUDY    67  65  91 NW12      29.86R
VIROQUA        PTSUNNY   69  69 100 NW17G26   29.85R
BOSCOBEL       LGT RAIN  78  72  81 W8        29.80F HX  80
PRAIRIE DU CHI LGT RAIN  75  71  86 W5        29.80F
PLATTEVILLE    CLOUDY    77  72  84 S8        29.83F
$$

WIZ056-057-062-063-064-067-068-070000-
SOUTH CENTRAL WISCONSIN

CITY           SKY/WX    TMP DP  RH WIND       PRES   REMARKS
REEDSBURG      RAIN      74  72  91 NW5       29.81S
BARABOO/DELLS  CLOUDY    77  67  72 SW8       29.82S
LONE ROCK      CLOUDY    79  70  74 SW8       29.81F HX  82
MINERAL POINT  CLOUDY    77  72  83 S7        29.84F
MADISON        CLOUDY    79  69  71 SW9       29.82S HX  81
MIDDLETON      CLOUDY    79  69  71 SW10      29.83F HX  82
WATERTOWN      CLOUDY    77  72  83 SW9       29.83S
MONROE         CLOUDY    77  70  78 SW9       29.84F
JANESVILLE     PTSUNNY   79  72  78 SW10      29.84F HX  82
$$

WIZ051-052-058>065-066-070>072-070000-
SOUTHEAST WISCONSIN

CITY           SKY/WX    TMP DP  RH WIND       PRES   REMARKS
MILWAUKEE      PTSUNNY   79  67  66 SW18      29.83F HX  81
WAUKESHA       PTSUNNY   75  66  73 S8        29.85F
MILWAUKEE/TIMM NOT AVBL
RACINE         PTSUNNY   76  68  76 SW8       29.86F
BURLINGTON     CLOUDY    74  69  83 SW5       29.85S
KENOSHA        CLOUDY    75  70  84 SW3       29.85F
FOND DU LAC    PTSUNNY   80  70  71 SW10      29.80F HX  83
SHEBOYGAN      PTSUNNY   80  69  69 SW15      29.80F HX  83
WEST BEND      MOSUNNY   77  68  73 SW10      29.83S
JUNEAU         PTSUNNY   76  70  80 S10       29.84S
$$

LSZ147-162-070000-
LAKE SUPERIOR

STATION/POSITION TIME  TEMP    WIND        PRES    WAVE
                       AIR SEA DIR/SP/G            HT/PER
                 (UTC) (F)     (DEG/KT/KT) (MB)    (FT/S)
W MID LAKE BUOY  2250   49 39  290/  8/  8 1013.0R   0
DEVILS ISLAND    2300   60     240/  5/  6 1013.2R
PORT WING        2200   63     280/  4/  5 1013.2F
SAXON HARBOR     2200   59        CALM     1012.9R
$$

LMZ867-665-643>646-070000-
LAKE MICHIGAN

STATION/POSITION TIME  TEMP    WIND        PRES    WAVE
                       AIR SEA DIR/SP/G            HT/PER
                 (UTC) (F)     (DEG/KT/KT) (MB)    (FT/S)
CHAMBERS ISLAND  2200   72     150/  6/ 11 1008.1F
N MID LAKE BUOY  2250   61 56  220/ 19/ 23 1008.2F   4/ 5
NORTHPORT PIER   2200   66     170/  7/ 15 1008.8S
SISTER BAY       2214   65     160/ 11/ 15   N/A
ALGOMA LAKESHORE 2241          220/ 13/ 15   N/A
KEWAUNEE LAKESHO 2200   59     180/ 12/ 14 1008.5F
SHEBOYGAN LAKESH 2300   67     170/ 20/ 21 1008.9F
PORT WASHINGTON  2200   68     170/  9/ 10 1010.2F
ATWATER BUOY     2300   74 60  190/ 10/ 14 1011.2F
MILWAUKEE LAKESH 2200   78     210/ 14/ 17   N/A
KENOSHA   LAKESH 2300   71     170/  7/  8 1010.5S
$$

TC  - TEMPERATURE IN CELSIUS
VSB - VISIBILITY IN STATUTE MILES
WCI - WIND CHILL INDEX
HX  - HEAT INDEX




USA.gov is the U.S. government's official web portal to all federal, state and local government web resources and services.